• In Sweden
  • List of Countries
  • For 7 days
  • Water Temperature
  • Satellite Maps
  • Weather Map
  • Weather Widgets
  • user-avatar
    Login

    Hourly Weather Andol

    Today, 19 October, Friday

    Time Temperature Precipitation Wind Pressure Humidity
    00:00 +22°C° 0 mm 0 mps 716 mmHg 70%
    01:00 +22°C° 0 mm 0 mps 716 mmHg 71%
    02:00 +22°C° 0 mm 0 mps 715 mmHg 72%
    03:00 +22°C° 0 mm 0 mps 715 mmHg 73%
    04:00 +21°C° 0 mm 0 mps 716 mmHg 74%
    05:00 +21°C° 0 mm 0 mps 716 mmHg 77%
    06:00 +22°C° 0 mm 0 mps 716 mmHg 72%
    07:00 +24°C° 0 mm 0 mps 717 mmHg 67%
    08:00 +27°C° 0 mm 1 mps 717 mmHg 62%
    09:00 +29°C° 0 mm 1 mps 717 mmHg 56%
    10:00 +31°C° 0 mm 2 mps 717 mmHg 51%
    11:00 +33°C° 0 mm 3 mps 717 mmHg 45%
    12:00 +34°C° 0 mm 3 mps 717 mmHg 44%
    13:00 +34°C° 0 mm 3 mps 716 mmHg 42%
    14:00 +34°C° 0 mm 3 mps 716 mmHg 41%
    15:00 +33°C° 0 mm 3 mps 716 mmHg 46%
    16:00 +31°C° 0 mm 3 mps 716 mmHg 51%
    17:00 +30°C° 0 mm 2 mps 716 mmHg 56%
    18:00 +29°C° 0 mm 2 mps 716 mmHg 58%
    19:00 +28°C° 0 mm 2 mps 716 mmHg 60%
    20:00 +27°C° 0 mm 2 mps 717 mmHg 62%
    21:00 +26°C° 0 mm 2 mps 717 mmHg 65%
    22:00 +26°C° 0 mm 2 mps 717 mmHg 67%
    23:00 +26°C° 0 mm 2 mps 717 mmHg 70%

    Tomorrow, 20 October, Saturday

    Time Temperature Precipitation Wind Pressure Humidity
    00:00 +25°C° 0 mm 2 mps 717 mmHg 73%
    01:00 +25°C° 0 mm 2 mps 716 mmHg 76%
    02:00 +25°C° 0 mm 2 mps 716 mmHg 79%
    03:00 +24°C° 0 mm 1 mps 716 mmHg 80%
    04:00 +24°C° 0 mm 1 mps 716 mmHg 81%
    05:00 +24°C° 0 mm 1 mps 716 mmHg 82%
    06:00 +25°C° 0 mm 1 mps 717 mmHg 77%
    07:00 +27°C° 0 mm 1 mps 718 mmHg 71%
    08:00 +28°C° 0 mm 2 mps 718 mmHg 66%
    09:00 +30°C° 0 mm 2 mps 718 mmHg 60%
    10:00 +31°C° 0 mm 2 mps 718 mmHg 54%
    11:00 +34°C° 0 mm 3 mps 718 mmHg 47%
    12:00 +34°C° 0 mm 3 mps 718 mmHg 46%
    13:00 +34°C° 0 mm 3 mps 717 mmHg 45%
    14:00 +35°C° 0 mm 3 mps 716 mmHg 43%
    15:00 +33°C° 0 mm 3 mps 716 mmHg 48%
    16:00 +31°C° 0 mm 3 mps 716 mmHg 52%
    17:00 +30°C° 0 mm 2 mps 716 mmHg 56%
    18:00 +29°C° 0 mm 2 mps 717 mmHg 58%
    19:00 +28°C° 0 mm 2 mps 717 mmHg 60%
    20:00 +27°C° 0 mm 2 mps 718 mmHg 62%
    21:00 +27°C° 0 mm 2 mps 718 mmHg 65%
    22:00 +26°C° 0 mm 2 mps 718 mmHg 67%
    23:00 +26°C° 0 mm 2 mps 718 mmHg 69%

    Day after tomorrow, 21 October, Sunday

    Time Temperature Precipitation Wind Pressure Humidity
    00:00 +25°C° 0 mm 2 mps 717 mmHg 70%
    01:00 +25°C° 0 mm 1 mps 717 mmHg 71%
    02:00 +25°C° 0 mm 1 mps 717 mmHg 72%
    03:00 +25°C° 0 mm 1 mps 717 mmHg 73%
    04:00 +25°C° 0 mm 1 mps 717 mmHg 73%
    05:00 +24°C° 0 mm 1 mps 717 mmHg 74%
    06:00 +26°C° 0 mm 1 mps 718 mmHg 70%
    07:00 +27°C° 0 mm 1 mps 718 mmHg 66%
    08:00 +28°C° 0 mm 1 mps 719 mmHg 63%
    09:00 +30°C° 0 mm 2 mps 719 mmHg 58%
    10:00 +31°C° 0 mm 2 mps 719 mmHg 53%
    11:00 +34°C° 0 mm 3 mps 719 mmHg 48%
    12:00 +34°C° 0 mm 3 mps 718 mmHg 49%
    13:00 +33°C° 0 mm 3 mps 717 mmHg 50%
    14:00 +33°C° 0 mm 3 mps 716 mmHg 51%
    15:00 +32°C° 0 mm 2 mps 716 mmHg 54%
    16:00 +31°C° 0 mm 2 mps 716 mmHg 56%
    17:00 +30°C° 0 mm 2 mps 716 mmHg 59%
    18:00 +29°C° 0.1 mm 2 mps 717 mmHg 61%
    19:00 +28°C° 0.1 mm 2 mps 718 mmHg 64%
    20:00 +27°C° 0.1 mm 2 mps 718 mmHg 66%
    21:00 +27°C° 0 mm 2 mps 718 mmHg 68%
    22:00 +26°C° 0 mm 2 mps 718 mmHg 70%
    23:00 +26°C° 0 mm 2 mps 718 mmHg 73%

    22 October, Monday

    Time Temperature Precipitation Wind Pressure Humidity
    00:00 +25°C° 0 mm 2 mps 717 mmHg 73%
    01:00 +25°C° 0 mm 2 mps 717 mmHg 74%
    02:00 +25°C° 0 mm 1 mps 716 mmHg 75%
    03:00 +25°C° 0 mm 1 mps 716 mmHg 75%
    04:00 +24°C° 0 mm 1 mps 717 mmHg 76%
    05:00 +24°C° 0 mm 1 mps 717 mmHg 76%
    06:00 +26°C° 0 mm 1 mps 717 mmHg 72%
    07:00 +27°C° 0 mm 1 mps 718 mmHg 67%
    08:00 +28°C° 0 mm 1 mps 719 mmHg 63%
    09:00 +30°C° 0 mm 1 mps 719 mmHg 57%
    10:00 +32°C° 0 mm 2 mps 719 mmHg 51%
    11:00 +34°C° 0 mm 2 mps 718 mmHg 45%
    12:00 +34°C° 0 mm 2 mps 718 mmHg 44%
    13:00 +34°C° 0 mm 2 mps 717 mmHg 44%
    14:00 +35°C° 0 mm 2 mps 716 mmHg 43%
    15:00 +34°C° 0 mm 2 mps 716 mmHg 47%
    16:00 +32°C° 0 mm 2 mps 716 mmHg 50%
    17:00 +31°C° 0 mm 2 mps 716 mmHg 54%
    18:00 +30°C° 0 mm 1 mps 716 mmHg 55%
    19:00 +29°C° 0 mm 1 mps 717 mmHg 57%
    20:00 +28°C° 0 mm 1 mps 717 mmHg 58%
    21:00 +28°C° 0 mm 1 mps 717 mmHg 60%
    22:00 +27°C° 0 mm 2 mps 717 mmHg 62%
    23:00 +27°C° 0 mm 2 mps 717 mmHg 64%

    23 October, Tuesday

    Time Temperature Precipitation Wind Pressure Humidity
    00:00 +26°C° 0 mm 2 mps 716 mmHg 67%
    01:00 +26°C° 0 mm 1 mps 716 mmHg 69%
    02:00 +26°C° 0 mm 1 mps 716 mmHg 71%
    03:00 +25°C° 0 mm 1 mps 716 mmHg 72%
    04:00 +25°C° 0 mm 1 mps 716 mmHg 73%
    05:00 +25°C° 0 mm 1 mps 716 mmHg 74%
    06:00 +26°C° 0 mm 1 mps 717 mmHg 69%
    07:00 +28°C° 0 mm 1 mps 718 mmHg 65%
    08:00 +29°C° 0 mm 1 mps 718 mmHg 61%
    09:00 +30°C° 0 mm 1 mps 718 mmHg 55%
    10:00 +32°C° 0 mm 1 mps 718 mmHg 48%
    11:00 +34°C° 0 mm 2 mps 718 mmHg 42%
    12:00 +35°C° 0 mm 2 mps 717 mmHg 40%
    13:00 +35°C° 0 mm 2 mps 716 mmHg 37%
    14:00 +35°C° 0 mm 2 mps 716 mmHg 35%
    15:00 +34°C° 0 mm 2 mps 716 mmHg 39%
    16:00 +32°C° 0 mm 2 mps 716 mmHg 43%
    17:00 +31°C° 0 mm 2 mps 716 mmHg 47%
    18:00 +30°C° 0 mm 2 mps 716 mmHg 48%
    19:00 +29°C° 0 mm 2 mps 716 mmHg 48%
    20:00 +28°C° 0 mm 1 mps 717 mmHg 49%
    21:00 +28°C° 0 mm 2 mps 717 mmHg 51%
    22:00 +27°C° 0 mm 2 mps 717 mmHg 53%
    23:00 +26°C° 0 mm 2 mps 717 mmHg 56%

    24 October, Wednesday

    Time Temperature Precipitation Wind Pressure Humidity
    00:00 +26°C° 0 mm 2 mps 716 mmHg 59%
    01:00 +26°C° 0 mm 2 mps 716 mmHg 62%
    02:00 +25°C° 0 mm 1 mps 715 mmHg 66%
    03:00 +25°C° 0 mm 1 mps 715 mmHg 67%
    04:00 +25°C° 0 mm 1 mps 716 mmHg 68%
    05:00 +25°C° 0 mm 1 mps 716 mmHg 69%
    06:00 +26°C° 0 mm 1 mps 717 mmHg 66%
    07:00 +27°C° 0 mm 1 mps 717 mmHg 63%
    08:00 +29°C° 0 mm 1 mps 718 mmHg 60%
    09:00 +30°C° 0 mm 1 mps 718 mmHg 52%
    10:00 +32°C° 0 mm 1 mps 718 mmHg 45%
    11:00 +33°C° 0 mm 1 mps 718 mmHg 37%
    12:00 +34°C° 0 mm 1 mps 717 mmHg 35%
    13:00 +35°C° 0 mm 2 mps 716 mmHg 32%
    14:00 +35°C° 0 mm 2 mps 716 mmHg 29%
    15:00 +34°C° 0 mm 2 mps 716 mmHg 33%
    16:00 +32°C° 0 mm 2 mps 716 mmHg 38%
    17:00 +30°C° 0 mm 2 mps 716 mmHg 42%
    18:00 +29°C° 0 mm 2 mps 716 mmHg 42%
    19:00 +28°C° 0 mm 2 mps 716 mmHg 43%
    20:00 +27°C° 0 mm 2 mps 717 mmHg 43%
    21:00 +27°C° 0 mm 2 mps 717 mmHg 45%
    22:00 +26°C° 0 mm 2 mps 717 mmHg 47%
    23:00 +25°C° 0 mm 2 mps 716 mmHg 49%
    Show more